{"data":{"norad_id":66237,"epoch":"2026-05-25T02:05:14.049888Z","epoch_age_seconds":70748,"freshness":"FRESH","line1":"1 66237U 25245D   26145.08696817  .00033598  00000+0  10009-2 0  9994","line2":"2 66237  53.1592 287.5948 0002266  81.9326 278.1934 15.34405550 32976","mean_motion":15.3440555,"eccentricity":0.0002266,"inclination_deg":53.1592,"raan_deg":287.5948,"arg_perigee_deg":81.9326,"mean_anomaly_deg":278.1934,"bstar":0.0010009,"rev_number":3297,"period_min":93.847418630622,"perigee_km":461.13661382672,"apogee_km":464.23687514772,"semimajor_km":6840.8237444872,"source":"CELESTRAK","updated_at":"2026-05-25T13:38:21.133747Z"}}